EHI
0 0 0 0 0 0 0 0 0 0 0 0 0 2 4 5 5 5 5 6 6 5 3 2 2 1 1 2 1 0 0 0 0 0 0 0 0 0 0 0 0 0 0 0
0 0 0 0 0 0 0 0 0 0 0 0 1 3 5 5 4 3 3 4 3 2 1 1 1 0 1 1 1 0 0 0 0 0 0 0 0 0 0 0 0 0 0 0
0 0 0 0 0 0 0 0 0 0 0 1 2 4 5 4 3 1 1 1 1 0 0 0 0 0 0 0 0 0 0 0 0 0 0 0 0 0 0 0 0 0 0 0
0 0 0 0 0 0 0 0 0 0 0 1 3 4 5 4 3 1 0 0 1 1 1 0 0 0 0 0 0 0 0 0 0 0 0 0 0 0 0 0 0 0 0 0
0 0 0 0 0 0 0 0 0 0 0 1 2 2 3 3 3 2 1 2 3 3 1 0 0 0 0 0 0 0 0 0 0 0 0 0 0 0 0 0 0 0 0 0
0 0 0 0 0 0 0 0 0 0 0 0 0 0 1 2 3 3 3 4 5 3 1 0 0 0 0 0 0 0 0 0 0 0 0 0 0 0 0 0 0 0 0 0
0 0 0 0 0 0 0 0 0 0 0 0 0 0 0 1 1 2 3 4 5 3 1 0 0 0 0 0 0 0 0 0 0 0 0 0 0 0 0 0 0 0 0 0
0 0 0 0 0 0 0 0 0 0 0 0 0 0 0 0 0 1 1 3 3 1 0 0 0 0 0 0 0 0 0 0 0 0 0 0 0 0 0 0 0 0 0 0
0 0 0 1 0 0 0 0 0 0 0 0 0 0 0 0 0 0 0 1 1 0 0 0 0 0 0 0 0 0 0 0 0 0 0 0 0 0 0 0 0 0 0 0
0 0 0 0 0 0 0 0 0 0 0 0 0 0 0 0 0 0 0 0 0 0 0 0 0 0 0 0 0 0 0 0 0 0 0 0 0 0 0 0 0 0 0 0
0 0 0 0 0 0 0 0 0 0 0 0 0 0 0 0 0 0 0 0 0 0 0 0 0 0 0 0 0 0 0 0 0 0 0 0 0 0 0 0 0 0 0 0
0 0 0 0 0 0 0 0 0 0 0 0 0 0 0 0 0 0 0 0 0 0 0 0 0 0 0 0 0 0 0 0 0 0 0 0 0 0 0 0 0 0 0 0
0 0 0 0 0 0 0 0 0 0 0 0 0 0 0 0 0 0 0 0 0 0 0 0 0 0 0 0 0 0 0 0 0 0 0 0 0 0 0 0 0 0 0 0
0 0 0 0 0 0 0 0 0 0 0 0 0 0 0 0 0 0 0 0 0 0 0 0 0 0 0 0 0 0 0 0 0 0 0 0 0 0 0 0 0 0 0 0
0 0 0 0 0 0 0 0 0 0 0 0 0 0 0 0 0 0 0 0 0 0 0 0 0 0 0 0 0 0 0 0 0 0 0 0 0 0 0 0 0 0 0 0
0 0 0 0 0 0 0 0 0 0 0 0 0 0 0 0 0 0 0 0 0 0 0 0 0 0 0 0 0 0 0 0 0 0 0 0 0 0 0 0 0 0 0 0
0 0 0 0 0 0 0 0 0 0 0 0 0 0 0 0 0 0 0 0 0 0 0 0 0 0 0 0 0 0 0 0 0 0 0 0 0 0 0 0 0 0 0 0
0 0 0 0 0 0 0 0 0 0 0 0 0 0 0 0 0 0 0 0 0 0 0 0 0 0 0 0 0 0 0 0 0 0 0 0 0 0 0 0 0 0 0 0
0 0 0 0 0 0 0 0 0 0 0 0 0 0 0 0 0 0 0 0 0 0 0 0 0 0 0 0 0 0 0 0 0 0 0 0 0 0 0 0 0 0 0 0
0 0 0 0 0 0 0 0 0 0 0 0 0 0 0 0 0 0 0 0 0 0 0 0 0 0 0 0 0 0 0 0 0 0 0 0 0 0 0 0 0 0 0 0
0 0 0 0 0 0 0 0 0 0 0 0 0 0 0 0 0 0 0 0 0 0 0 0 0 0 0 0 0 0 0 0 0 0 0 0 0 0 0 0 0 0 0 0
0 0 0 0 0 0 0 0 0 0 0 0 0 0 0 0 0 0 0 0 0 0 0 0 0 0 0 0 0 0 0 0 0 0 0 0 0 0 0 0 0 0 0 0
0 0 0 0 0 0 0 0 0 0 0 0 0 0 0 0 0 0 0 0 0 0 0 0 0 0 0 0 0 0 0 0 0 0 0 0 0 0 0 0 0 0 0 0
0 0 0 0 0 0 0 0 0 0 0 0 0 0 0 0 0 0 0 0 0 0 0 0 0 0 0 0 0 0 0 0 0 0 0 0 0 0 0 0 0 0 0 0
0 0 0 0 0 0 0 0 0 0 0 0 0 0 0 0 0 0 0 0 0 0 0 0 0 0 0 0 0 0 0 0 0 0 0 0 0 0 0 0 0 0 0 0
0 0 0 0 0 0 0 0 0 0 0 0 0 0 0 0 0 0 0 0 0 0 0 0 0 0 0 0 0 0 0 0 0 0 0 0 0 0 0 0 0 0 0 0
0 0 0 0 0 0 0 0 0 0 0 0 0 0 0 0 0 0 0 0 0 0 0 0 0 0 0 0 0 0 0 0 0 0 0 0 0 0 0 0 0 0 0 0
Wind_Speed
4 3 3 4 4 5 6 8 8 5 4 1 3 4 5 5 5 5 5 5 5 5 4 3 3 2 2 2 2 3 2 2 2 1 2 1 1 1 1 1 1 2 2 2
5 4 4 5 5 5 5 6 5 5 2 4 5 5 6 5 5 4 5 5 5 5 4 3 3 2 2 2 2 2 2 2 2 2 1 1 1 1 1 1 2 2 2 3
6 4 7 6 5 5 5 4 5 5 1 5 5 5 5 5 5 5 5 5 5 5 4 3 3 2 2 2 2 2 2 2 2 2 1 1 0 1 1 1 1 2 2 3
5 6 7 0 1 3 4 3 2 1 3 4 4 4 4 4 5 5 4 4 5 4 4 3 3 3 2 2 2 2 2 2 2 1 1 1 1 1 1 1 1 2 2 2
5 6 6 4 4 5 5 3 2 3 5 6 7 6 5 4 4 4 4 4 4 4 4 4 3 3 3 2 2 2 2 2 2 2 2 1 1 1 1 1 1 1 2 2
6 7 5 1 4 3 5 4 5 6 7 8 7 4 5 6 5 5 5 5 4 4 4 4 3 3 3 3 2 2 2 2 2 2 2 2 2 1 1 1 1 2 2 2
8 7 3 3 5 6 5 3 7 7 8 8 4 4 8 8 7 6 6 6 5 5 4 4 4 3 3 2 2 2 2 2 2 1 1 1 1 1 1 1 2 2 2 2
7 7 2 6 6 3 3 6 6 7 7 7 7 8 9 9 8 7 7 7 6 5 4 4 3 3 3 2 2 2 2 2 2 1 0 1 0 1 1 2 2 1 1 2
2 1 4 4 3 3 3 5 6 7 8 9 9 9 9 9 8 8 7 7 6 5 5 4 3 3 3 3 2 2 3 2 2 1 0 0 1 1 2 2 2 2 1 2
3 3 4 5 5 5 5 6 7 8 9 9 9 10 10 9 8 8 7 6 5 5 5 4 3 3 2 2 2 2 2 2 2 2 1 1 1 2 2 2 2 3 3 3
4 4 5 6 6 7 7 8 9 9 9 9 10 10 10 9 8 7 6 5 5 4 4 4 3 3 3 3 2 2 2 2 2 1 1 1 1 2 3 3 4 4 4 4
3 6 6 7 8 9 10 10 10 10 10 9 9 10 10 9 7 7 6 5 5 4 4 4 3 3 2 3 3 2 2 2 1 1 1 2 1 1 1 2 2 4 5 6
1 5 6 9 10 10 10 10 10 10 10 10 9 9 9 8 7 6 6 5 5 5 4 3 3 2 2 3 3 2 2 1 1 1 1 2 2 2 1 2 5 7 7 7
7 8 9 10 10 10 10 10 10 10 9 9 9 9 8 8 7 7 6 5 5 5 4 4 3 3 2 3 3 2 2 2 3 2 3 3 3 3 3 3 2 3 6 9
9 7 9 11 11 11 11 11 11 10 10 9 9 9 8 8 7 6 6 5 5 5 4 4 4 3 3 3 3 3 3 2 2 2 3 3 3 4 4 4 3 3 3 4
10 9 12 13 13 12 12 11 10 10 10 9 9 8 8 7 6 6 6 5 5 5 4 4 4 4 4 4 4 4 3 2 4 4 4 4 4 4 4 4 4 4 4 4
14 14 14 14 14 13 11 11 10 10 10 10 9 9 8 7 7 6 6 6 5 5 5 5 4 4 5 5 5 4 4 3 6 6 4 4 4 4 5 5 5 5 5 3
13 13 13 14 13 13 12 11 10 10 9 9 9 9 8 7 7 6 5 5 5 5 5 5 5 5 5 5 5 5 4 4 4 4 4 4 5 5 5 5 6 7 6 4
12 13 13 13 12 12 11 11 10 9 9 9 9 8 7 6 6 6 6 6 6 5 5 4 4 6 6 5 5 5 5 5 5 4 4 4 6 6 6 6 6 7 6 5
13 13 13 13 12 12 11 10 10 9 8 9 8 8 7 6 6 6 6 5 4 3 3 4 5 6 6 5 6 6 5 5 5 5 5 6 6 6 6 6 7 7 6 6
14 14 14 13 12 11 11 10 9 9 9 9 8 8 7 6 6 5 5 5 4 4 4 5 5 5 5 4 7 7 6 6 6 6 6 6 6 7 7 7 7 7 7 7
14 14 14 13 12 10 9 9 9 9 9 8 8 7 7 6 6 6 6 4 3 4 4 5 5 3 3 5 7 6 6 6 6 6 6 7 7 7 8 8 8 7 7 8
13 13 13 12 12 10 10 9 9 8 8 7 7 7 6 5 4 4 4 4 4 4 5 4 2 3 4 7 7 7 7 7 7 7 7 7 7 8 7 8 8 8 8 8
12 12 12 11 11 11 10 9 9 7 7 7 6 6 6 5 4 4 3 4 4 4 5 2 4 5 7 7 6 6 6 6 6 7 7 7 7 7 7 7 7 7 8 9
12 12 12 12 11 9 9 9 9 8 8 6 7 7 6 4 3 3 3 4 5 5 5 5 8 8 8 6 6 6 5 5 6 6 6 6 7 6 6 6 7 7 8 8
12 10 10 9 7 7 8 8 7 6 6 6 5 5 4 4 4 3 3 5 6 5 6 4 5 7 6 6 5 5 6 5 6 6 6 7 7 7 7 7 9 8 7 7
12 10 8 8 8 8 7 7 6 6 6 5 5 4 4 4 4 3 4 4 4 5 5 4 4 4 5 4 4 5 5 5 5 6 6 6 6 6 6 8 7 7 7 7
Wind_Direction
277 286 279 272 267 250 254 276 285 295 292 58 135 145 140 140 139 142 145 144 145 148 141 132 127 139 140 133 140 145 140 124 99 78 79 80 67 47 33 15 8 12 4 4
246 231 245 260 259 252 257 266 271 272 276 79 112 134 143 149 151 159 160 152 150 150 150 149 150 149 141 136 140 143 139 130 101 87 80 56 48 37 20 19 10 0 357 352
250 239 250 246 247 246 245 259 274 282 60 128 142 153 154 155 160 160 157 155 153 153 152 155 158 155 148 144 146 152 142 130 111 109 106 89 60 27 11 17 19 3 3 356
254 246 252 327 87 246 245 255 281 322 120 141 132 128 129 148 156 156 154 151 149 149 148 150 151 153 155 151 158 154 139 122 109 115 98 87 88 50 19 12 6 349 351 348
256 257 260 208 196 218 235 232 206 180 148 140 132 142 137 137 147 147 146 144 141 142 139 140 144 148 145 141 137 140 124 98 84 76 77 76 57 37 21 356 342 312 328 328
248 262 264 149 138 177 239 219 160 170 161 156 176 203 129 133 136 130 129 130 135 138 134 139 146 152 151 144 145 143 123 106 94 77 65 57 43 0 351 331 315 308 334 324
245 252 255 103 136 187 239 83 138 164 164 167 177 54 106 129 130 130 131 133 137 138 138 138 146 154 151 148 145 138 129 119 107 94 91 78 40 337 312 304 325 317 319 322
235 244 204 132 170 221 54 101 139 152 153 146 117 112 123 130 132 135 135 136 140 140 134 136 150 159 153 141 129 135 134 130 122 127 161 115 168 297 307 306 285 285 301 307
274 2 85 142 135 94 114 131 135 144 143 141 137 135 133 133 135 138 139 137 143 144 139 143 157 167 154 136 143 146 148 145 145 144 140 242 258 266 278 278 289 311 319 335
210 172 158 156 152 142 135 129 130 135 142 146 143 141 140 138 139 140 141 144 151 152 149 147 154 159 149 149 154 154 153 157 177 189 196 183 278 297 316 328 326 329 341 346
207 173 159 168 165 152 140 135 133 134 140 143 143 144 142 140 142 144 147 151 154 156 155 148 147 144 146 149 159 159 163 176 194 214 227 258 291 336 325 351 350 320 328 326
225 180 181 163 163 157 150 147 144 143 141 142 144 145 144 142 144 148 151 153 156 160 160 153 151 148 154 166 173 179 190 207 225 234 253 271 263 237 274 274 240 246 266 289
171 142 136 140 148 151 148 146 146 146 144 143 142 144 146 144 147 152 156 161 163 162 161 162 161 161 167 172 174 182 215 247 268 273 278 279 282 282 269 230 227 233 237 244
144 138 141 150 149 150 146 144 143 141 141 142 143 146 148 148 151 157 162 164 166 167 168 169 174 174 174 174 183 199 228 226 253 265 275 284 289 286 281 280 262 243 219 220
171 171 157 149 147 147 145 147 147 146 145 147 150 153 155 157 159 161 163 167 170 176 179 182 185 187 196 195 198 223 250 261 270 287 282 286 285 284 283 286 285 285 275 210
169 159 153 153 154 155 156 157 156 152 151 153 155 157 158 159 160 163 167 175 182 185 185 195 202 204 205 207 215 224 231 245 263 272 270 272 274 279 281 281 285 287 285 286
166 165 164 163 163 163 163 163 160 156 156 157 158 158 160 164 167 171 177 184 192 197 202 208 213 217 214 215 230 241 237 212 217 248 267 284 288 286 285 286 291 291 286 300
175 170 169 166 165 164 164 162 160 159 159 160 159 162 168 174 179 179 183 185 191 202 211 213 213 221 223 225 235 255 253 256 257 267 270 273 285 284 281 282 284 285 285 260
170 165 164 164 165 164 163 162 161 159 160 164 167 169 175 180 183 185 187 192 200 208 209 204 200 224 231 238 252 243 248 254 260 264 270 269 264 269 276 279 283 284 286 286
166 164 163 165 167 164 162 162 161 161 165 169 172 176 181 183 185 187 192 206 214 217 200 200 208 223 229 227 241 252 251 255 260 264 267 272 274 274 276 279 283 284 284 285
165 165 166 166 164 164 163 162 163 164 167 174 179 184 184 187 192 193 202 207 195 199 208 198 220 230 232 229 225 246 247 251 259 264 267 271 276 280 282 284 284 283 283 283
165 165 166 161 160 159 158 162 165 166 167 175 181 182 182 186 193 199 209 219 193 177 220 219 222 225 239 248 242 246 251 256 262 267 269 271 273 275 278 282 284 284 282 282
161 161 161 160 159 156 158 165 166 166 170 177 180 183 187 192 198 205 202 189 197 183 228 234 197 179 225 246 253 254 254 259 265 268 269 271 273 276 278 281 283 285 285 286
159 159 158 155 155 157 162 163 161 164 170 175 174 177 185 192 196 200 194 170 182 192 237 188 179 213 237 249 255 261 263 264 269 273 275 277 279 283 286 288 291 292 290 290
157 156 155 158 162 163 161 162 163 170 176 170 167 174 187 194 200 191 194 191 178 208 232 195 198 217 239 252 255 265 272 278 283 285 284 286 288 291 294 295 295 293 294 294
156 159 158 167 162 160 163 168 172 171 173 170 168 170 177 182 195 192 198 205 201 218 242 231 208 214 241 256 262 269 277 277 271 273 283 289 291 293 293 294 295 295 297 298
160 158 161 168 168 173 171 172 173 174 175 174 171 174 180 184 190 197 205 211 207 215 234 246 244 240 249 259 267 271 275 280 285 288 288 288 291 295 300 299 298 300 301 304